Tracking 25723 objects as of 26-Jun-2022
HD Live streaming from Space Station
objects crossing your sky now

STARLINK-1846

Track STARLINK-1846 now!
10-day predictions
STARLINK-1846 is classified as:


NORAD ID: 47136
Int'l Code: 2020-088Q
Perigee: 553.3 km
Apogee: 555.3 km
Inclination: 53.1 °
Period: 95.6 minutes
Semi major axis: 6925 km
RCS: Unknown
Launch date: November 25, 2020
Source: United States (US)
Launch site: AIR FORCE EASTERN TEST RANGE (AFETR)
aabbcc
Your satellite tracking list
Your tracking list is empty




NASA's NSSDC Master Catalog

Two Line Element Set (TLE):
1 47136U 20088Q   22177.52778612  .00003239  00000-0  23617-3 0  9995
2 47136  53.0517 251.7198 0001440  84.9841 275.1312 15.06407724 88036
Source of the keplerian elements: AFSPC